Погода в Уржуме

Россия / Кировская область     57°06′35″N   50°00′20″E
В апреле 2022 года жителям России запретили посещать сайт meteo.paraplan.net по решению Генеральной прокуратуры. Аудитория сайта уменьшилась в 10 раз. Владельцы сайта не видят смысла в поддержке погодного сервера в таких условиях. Сайт будет закрыт в октябре.
темп.,
°C
ветер,
м/с
пор.,
м/с
влажн.,
%
обл.,
%
осадки,
мм/ч
давл.,
гПа
погр.,
м
25 сентября, вс
вс2500:00+9юз3490100 0.0 100961
03:00+9юз1181100 0.0 101011
06:00+9ю1178100 0.0 101012
09:00+11с1168100 0.1 1009271
12:00+12сз2369100 0.3 1008532
15:00+10ссз3789100 2.4 1006441
18:00+9зсз6996100 11.4 1003447
21:00+9зсз81295100 21.9 1000635
26 сентября, пн
пн2600:00+8з7994100 2.3 1000605
03:00+8зюз61190100 2.9 1002743
06:00+8ююз4791100 0.3 1005347
09:00+9ююз3481100 0.3 1007331
12:00+10юв3478100 0.0 1009617
15:00+10в3484100 0.4 1010284
18:00+9всв4890100 0.6 1011280
21:00+8в4896100 1.8 1012445
27 сентября, вт
вт2700:00+6в5795100 1.8 1013319
03:00+6в4595100 2.0 1014302
06:00+5всв4596100 0.3 1014316
09:00+5в4594100 0.8 1015372
12:00+5в3491100 0.1 1017400
15:00+5всв4492100 0.1 1017433
18:00+4всв4597100 0.1 1018357
21:00+3всв3597100 0.3 1019394
28 сентября, ср
ср2800:00+3всв3497100 0.3 1019492
03:00+3всв4699100 0.6 1020429
06:00+2всв4698100 0.2 1021517
09:00+3всв5691100 0.3 1021619
12:00+5в567088 0.0 1022939
15:00+6в5760100 0.0 10211355
18:00+3всв410735 0.0 1022208
21:00+1всв512805 0.0 1023400
29 сентября, чт
чт2900:00−1всв510898 0.0 1024328
03:00−2всв5118924 0.0 1024334
06:00−2всв5138310 0.0 1024427
09:00+3в812575 0.0 1023846
12:00+6в810455 0.0 10231220
15:00+7в710495 0.0 10231319
18:00+3всв613615 0.0 1025474
21:00+1всв613695 0.0 1026498